User: anonymous   Login
Location: Columbia
(38.9520°N, 92.3340°W)
Time: 18:04:17
(UTC-05:00)
Language:

Cosmos 2100 Rocket - Orbit

View from above orbital plane
View from above orbital plane
View from above satellite
View from above satellite

Ground track
Ground track

The orbit data is extracted from the following two-line orbital elements,

1 20805U 90083B   16149.92722992 +.00000110 +00000-0 +98002-4 0  9993
2 20805 082.9359 346.2274 0031276 029.3772 079.3854 13.75799645290294
Epoch (UTC): 28 May 2016 22:15:12
Eccentricity: 0.0031276
inclination: 82.9359°
perigee height: 956 km
apogee height: 1002 km
right ascension of ascending node: 346.2274°
argument of perigee: 29.3772°
revolutions per day: 13.75799645
mean anomaly at epoch: 79.3854°
orbit number at epoch: 29029

The dashed part of the orbit path shows where the satellite is in the earth's shadow,  

DLR